Time,TemperatureF,DewpointF,PressureIn,WindDirection,WindDirectionDegrees,WindSpeedMPH,WindSpeedGustMPH,Humidity,HourlyPrecipIn,Conditions,Clouds,dailyrainin,SoftwareType,DateUTC
2013-02-26 00:02:00,36.5,34.7,30.39,SE,127,0.0,0.0,93,0.00,,,0.00,Wunderground v.1.15,2013-02-26 08:02:00,
2013-02-26 00:07:00,36.5,34.7,30.38,SE,127,0.0,0.0,93,0.00,,,0.00,Wunderground v.1.15,2013-02-26 08:07:00,
2013-02-26 00:12:00,36.3,34.5,30.38,SE,127,0.0,0.0,93,0.00,,,0.00,Wunderground v.1.15,2013-02-26 08:12:00,
2013-02-26 00:18:00,36.1,34.3,30.38,SE,127,0.0,0.0,93,0.00,,,0.00,Wunderground v.1.15,2013-02-26 08:18:00,
2013-02-26 00:23:00,36.1,34.3,30.38,SE,128,0.0,0.0,93,0.00,,,0.00,Wunderground v.1.15,2013-02-26 08:23:00,
2013-02-26 00:28:00,35.8,34.0,30.38,SE,128,0.0,0.0,93,0.00,,,0.00,Wunderground v.1.15,2013-02-26 08:28:00,
2013-02-26 00:34:00,35.6,34.0,30.38,SE,129,0.0,0.0,94,0.00,,,0.00,Wunderground v.1.15,2013-02-26 08:34:00,
2013-02-26 00:39:00,35.5,33.7,30.38,SE,128,0.0,0.0,93,0.00,,,0.00,Wunderground v.1.15,2013-02-26 08:39:00,
2013-02-26 00:44:00,35.2,33.4,30.38,SE,129,0.0,0.0,93,0.00,,,0.00,Wunderground v.1.15,2013-02-26 08:44:00,
2013-02-26 00:50:00,35.0,33.2,30.38,SE,129,0.0,0.0,93,0.00,,,0.00,Wunderground v.1.15,2013-02-26 08:50:00,
2013-02-26 00:55:00,35.0,33.4,30.38,SE,129,0.0,0.0,94,0.00,,,0.00,Wunderground v.1.15,2013-02-26 08:55:00,
2013-02-26 01:00:00,34.9,33.3,30.38,SE,129,0.0,0.0,94,0.00,,,0.00,Wunderground v.1.15,2013-02-26 09:00:00,
2013-02-26 01:06:00,35.0,33.4,30.38,SE,129,0.0,0.0,94,0.00,,,0.00,Wunderground v.1.15,2013-02-26 09:06:00,
2013-02-26 01:11:00,34.7,33.2,30.38,SE,127,0.0,0.0,94,0.00,,,0.00,Wunderground v.1.15,2013-02-26 09:11:00,
2013-02-26 01:17:00,34.5,33.0,30.37,SE,129,0.0,0.0,94,0.00,,,0.00,Wunderground v.1.15,2013-02-26 09:17:00,
2013-02-26 01:23:00,34.4,32.9,30.37,SE,129,0.0,0.0,94,0.00,,,0.00,Wunderground v.1.15,2013-02-26 09:23:00,
2013-02-26 01:28:00,34.3,32.8,30.36,SE,128,0.0,0.0,94,0.00,,,0.00,Wunderground v.1.15,2013-02-26 09:28:00,
2013-02-26 01:34:00,34.1,32.6,30.36,SE,129,0.0,0.0,94,0.00,,,0.00,Wunderground v.1.15,2013-02-26 09:34:00,
2013-02-26 01:39:00,34.1,32.6,30.36,SE,129,0.0,0.0,94,0.00,,,0.00,Wunderground v.1.15,2013-02-26 09:39:00,
2013-02-26 01:44:00,34.1,32.8,30.36,SE,129,0.0,0.0,95,0.00,,,0.00,Wunderground v.1.15,2013-02-26 09:44:00,
2013-02-26 01:50:00,33.9,32.4,30.36,SE,129,0.0,0.0,94,0.00,,,0.00,Wunderground v.1.15,2013-02-26 09:50:00,
2013-02-26 01:55:00,33.9,32.6,30.36,SE,128,0.0,0.0,95,0.00,,,0.00,Wunderground v.1.15,2013-02-26 09:55:00,
2013-02-26 02:00:00,33.9,32.6,30.36,SE,128,0.0,0.0,95,0.00,,,0.00,Wunderground v.1.15,2013-02-26 10:00:00,
2013-02-26 02:06:00,33.6,32.3,30.35,SE,128,0.0,0.0,95,0.00,,,0.00,Wunderground v.1.15,2013-02-26 10:06:00,
2013-02-26 02:11:00,33.5,32.2,30.35,SE,129,0.0,0.0,95,0.00,,,0.00,Wunderground v.1.15,2013-02-26 10:11:00,
2013-02-26 02:16:00,33.3,32.0,30.35,SE,128,0.0,0.0,95,0.00,,,0.00,Wunderground v.1.15,2013-02-26 10:16:00,
2013-02-26 02:22:00,33.0,31.5,30.34,SE,129,0.0,0.0,94,0.00,,,0.00,Wunderground v.1.15,2013-02-26 10:22:00,
2013-02-26 02:27:00,32.8,31.5,30.34,SE,129,0.0,0.0,95,0.00,,,0.00,Wunderground v.1.15,2013-02-26 10:27:00,
2013-02-26 02:32:00,32.7,31.4,30.34,SE,128,0.0,0.0,95,0.00,,,0.00,Wunderground v.1.15,2013-02-26 10:32:00,
2013-02-26 02:38:00,32.7,31.4,30.34,SE,129,0.0,0.0,95,0.00,,,0.00,Wunderground v.1.15,2013-02-26 10:38:00,
2013-02-26 02:43:00,32.6,31.3,30.33,SE,129,0.0,0.0,95,0.00,,,0.00,Wunderground v.1.15,2013-02-26 10:43:00,
2013-02-26 02:49:00,32.6,31.3,30.33,SE,128,0.0,0.0,95,0.00,,,0.00,Wunderground v.1.15,2013-02-26 10:49:00,
2013-02-26 02:54:00,32.5,31.2,30.33,SE,129,0.0,0.0,95,0.00,,,0.00,Wunderground v.1.15,2013-02-26 10:54:00,
2013-02-26 02:59:00,32.5,31.2,30.33,SE,129,0.0,0.0,95,0.00,,,0.00,Wunderground v.1.15,2013-02-26 10:59:00,
2013-02-26 03:04:00,32.3,31.0,30.34,SE,128,0.0,0.0,95,0.00,,,0.00,Wunderground v.1.15,2013-02-26 11:04:00,
2013-02-26 03:10:00,32.0,30.7,30.33,SE,127,0.0,0.0,95,0.00,,,0.00,Wunderground v.1.15,2013-02-26 11:10:00,
2013-02-26 03:15:00,31.9,30.6,30.33,SE,128,0.0,0.0,95,0.00,,,0.00,Wunderground v.1.15,2013-02-26 11:15:00,
2013-02-26 03:20:00,31.8,30.5,30.33,SE,128,0.0,0.0,95,0.00,,,0.00,Wunderground v.1.15,2013-02-26 11:20:00,
2013-02-26 03:26:00,31.8,30.5,30.33,SE,128,0.0,0.0,95,0.00,,,0.00,Wunderground v.1.15,2013-02-26 11:26:00,
2013-02-26 03:31:00,31.8,30.5,30.33,SE,128,0.0,0.0,95,0.00,,,0.00,Wunderground v.1.15,2013-02-26 11:31:00,
2013-02-26 03:36:00,31.8,30.5,30.33,SE,127,0.0,0.0,95,0.00,,,0.00,Wunderground v.1.15,2013-02-26 11:36:00,
2013-02-26 03:42:00,31.7,30.4,30.33,SE,128,0.0,0.0,95,0.00,,,0.00,Wunderground v.1.15,2013-02-26 11:42:00,
2013-02-26 03:47:00,31.7,30.4,30.33,SE,128,0.0,0.0,95,0.00,,,0.00,Wunderground v.1.15,2013-02-26 11:47:00,
2013-02-26 03:52:00,31.6,30.6,30.33,SE,129,0.0,0.0,96,0.00,,,0.00,Wunderground v.1.15,2013-02-26 11:52:00,
2013-02-26 03:58:00,31.8,30.8,30.33,SE,129,0.0,0.0,96,0.00,,,0.00,Wunderground v.1.15,2013-02-26 11:58:00,
2013-02-26 04:03:00,31.8,30.5,30.33,SE,127,0.0,0.0,95,0.00,,,0.00,Wunderground v.1.15,2013-02-26 12:03:00,
2013-02-26 04:08:00,31.6,30.3,30.33,SE,127,0.0,0.0,95,0.00,,,0.00,Wunderground v.1.15,2013-02-26 12:08:00,
2013-02-26 04:14:00,31.6,30.6,30.33,SE,129,0.0,0.0,96,0.00,,,0.00,Wunderground v.1.15,2013-02-26 12:14:00,
2013-02-26 04:19:00,31.4,30.1,30.33,SE,128,0.0,0.0,95,0.00,,,0.00,Wunderground v.1.15,2013-02-26 12:19:00,
2013-02-26 04:24:00,31.2,29.9,30.33,SE,128,0.0,0.0,95,0.00,,,0.00,Wunderground v.1.15,2013-02-26 12:24:00,
2013-02-26 04:29:00,31.1,29.8,30.33,SE,127,0.0,0.0,95,0.00,,,0.00,Wunderground v.1.15,2013-02-26 12:29:00,
2013-02-26 04:35:00,31.1,29.8,30.33,SE,127,0.0,0.0,95,0.00,,,0.00,Wunderground v.1.15,2013-02-26 12:35:00,
2013-02-26 04:40:00,31.1,29.8,30.33,SE,127,0.0,0.0,95,0.00,,,0.00,Wunderground v.1.15,2013-02-26 12:40:00,
2013-02-26 04:45:00,31.2,30.2,30.33,SE,127,0.0,0.0,96,0.00,,,0.00,Wunderground v.1.15,2013-02-26 12:45:00,
2013-02-26 04:51:00,31.2,30.2,30.33,SE,128,0.0,0.0,96,0.00,,,0.00,Wunderground v.1.15,2013-02-26 12:51:00,
2013-02-26 04:56:00,31.4,30.4,30.33,SE,127,0.0,0.0,96,0.00,,,0.00,Wunderground v.1.15,2013-02-26 12:56:00,
2013-02-26 05:01:00,31.5,30.5,30.33,SE,127,0.0,0.0,96,0.00,,,0.00,Wunderground v.1.15,2013-02-26 13:01:00,
2013-02-26 05:07:00,31.3,30.3,30.33,SE,128,0.0,0.0,96,0.00,,,0.00,Wunderground v.1.15,2013-02-26 13:07:00,
2013-02-26 05:12:00,31.3,30.3,30.33,SE,128,0.0,0.0,96,0.00,,,0.00,Wunderground v.1.15,2013-02-26 13:12:00,
2013-02-26 05:17:00,31.4,30.4,30.32,SE,127,0.0,0.0,96,0.00,,,0.00,Wunderground v.1.15,2013-02-26 13:17:00,
2013-02-26 05:23:00,31.3,30.3,30.32,SE,129,0.0,0.0,96,0.00,,,0.00,Wunderground v.1.15,2013-02-26 13:23:00,
2013-02-26 05:28:00,31.1,30.1,30.32,SE,128,0.0,0.0,96,0.00,,,0.00,Wunderground v.1.15,2013-02-26 13:28:00,
2013-02-26 05:33:00,31.1,30.1,30.32,SE,128,0.0,0.0,96,0.00,,,0.00,Wunderground v.1.15,2013-02-26 13:33:00,
2013-02-26 05:39:00,31.2,30.2,30.32,South,183,0.0,0.0,96,0.00,,,0.00,Wunderground v.1.15,2013-02-26 13:39:00,
2013-02-26 05:44:00,31.3,30.3,30.32,South,183,0.0,0.0,96,0.00,,,0.00,Wunderground v.1.15,2013-02-26 13:44:00,
2013-02-26 05:49:00,31.2,30.2,30.32,South,183,0.0,0.0,96,0.00,,,0.00,Wunderground v.1.15,2013-02-26 13:49:00,
2013-02-26 05:55:00,31.0,30.0,30.32,South,184,0.0,0.0,96,0.00,,,0.00,Wunderground v.1.15,2013-02-26 13:55:00,
2013-02-26 06:00:00,31.0,30.0,30.32,South,184,0.0,0.0,96,0.00,,,0.00,Wunderground v.1.15,2013-02-26 14:00:00,
2013-02-26 06:05:00,31.0,30.0,30.32,South,183,0.0,0.0,96,0.00,,,0.00,Wunderground v.1.15,2013-02-26 14:05:00,
2013-02-26 06:11:00,30.9,29.9,30.32,South,184,0.0,0.0,96,0.00,,,0.00,Wunderground v.1.15,2013-02-26 14:11:00,
2013-02-26 06:16:00,31.0,30.0,30.31,SW,214,0.0,0.0,96,0.00,,,0.00,Wunderground v.1.15,2013-02-26 14:16:00,
2013-02-26 06:22:00,31.0,30.0,30.31,SW,214,0.0,0.0,96,0.00,,,0.00,Wunderground v.1.15,2013-02-26 14:22:00,
2013-02-26 06:27:00,30.9,29.9,30.31,SW,214,0.0,0.0,96,0.00,,,0.00,Wunderground v.1.15,2013-02-26 14:27:00,
2013-02-26 06:32:00,30.8,29.8,30.31,SW,214,0.0,0.0,96,0.00,,,0.00,Wunderground v.1.15,2013-02-26 14:32:00,
2013-02-26 06:38:00,30.8,29.8,30.31,WSW,242,0.0,0.0,96,0.00,,,0.00,Wunderground v.1.15,2013-02-26 14:38:00,
2013-02-26 06:43:00,30.6,29.6,30.30,WSW,242,0.0,0.0,96,0.00,,,0.00,Wunderground v.1.15,2013-02-26 14:43:00,
2013-02-26 06:49:00,30.6,29.6,30.30,WSW,242,0.0,0.0,96,0.00,,,0.00,Wunderground v.1.15,2013-02-26 14:49:00,
2013-02-26 06:54:00,30.5,29.5,30.30,WSW,242,0.0,0.0,96,0.00,,,0.00,Wunderground v.1.15,2013-02-26 14:54:00,
2013-02-26 07:00:00,30.3,29.3,30.30,WSW,242,0.0,0.0,96,0.00,,,0.00,Wunderground v.1.15,2013-02-26 15:00:00,
2013-02-26 07:05:00,30.3,29.3,30.29,WSW,242,0.0,0.0,96,0.00,,,0.00,Wunderground v.1.15,2013-02-26 15:05:00,
2013-02-26 07:10:00,30.2,29.2,30.30,WSW,242,0.0,0.0,96,0.00,,,0.00,Wunderground v.1.15,2013-02-26 15:10:00,
2013-02-26 07:15:00,30.2,29.2,30.30,WSW,242,0.0,0.0,96,0.00,,,0.00,Wunderground v.1.15,2013-02-26 15:15:00,
2013-02-26 07:21:00,30.2,29.2,30.30,WSW,242,0.0,0.0,96,0.00,,,0.00,Wunderground v.1.15,2013-02-26 15:21:00,
2013-02-26 07:26:00,30.2,29.2,30.30,SE,124,0.0,0.0,96,0.00,,,0.00,Wunderground v.1.15,2013-02-26 15:26:00,
2013-02-26 07:32:00,31.0,30.2,30.30,ESE,122,0.0,0.0,97,0.00,,,0.00,Wunderground v.1.15,2013-02-26 15:32:00,
2013-02-26 07:37:00,31.5,30.7,30.30,ESE,122,0.0,0.0,97,0.00,,,0.00,Wunderground v.1.15,2013-02-26 15:37:00,
2013-02-26 07:42:00,32.2,31.4,30.30,SW,215,0.0,0.0,97,0.00,,,0.00,Wunderground v.1.15,2013-02-26 15:42:00,
2013-02-26 07:48:00,32.4,31.6,30.30,SW,217,0.0,0.0,97,0.00,,,0.00,Wunderground v.1.15,2013-02-26 15:48:00,
2013-02-26 07:53:00,33.1,32.3,30.30,SSE,160,0.0,0.0,97,0.00,,,0.00,Wunderground v.1.15,2013-02-26 15:53:00,
2013-02-26 07:58:00,34.1,33.3,30.30,SSE,166,0.0,0.0,97,0.00,,,0.00,Wunderground v.1.15,2013-02-26 15:58:00,
2013-02-26 08:04:00,35.2,34.4,30.30,SSE,166,0.0,0.0,97,0.00,,,0.00,Wunderground v.1.15,2013-02-26 16:04:00,
2013-02-26 08:09:00,36.4,35.6,30.30,SSE,166,0.0,0.0,97,0.00,,,0.00,Wunderground v.1.15,2013-02-26 16:09:00,
2013-02-26 08:14:00,36.7,35.9,30.30,SSE,166,0.0,0.0,97,0.00,,,0.00,Wunderground v.1.15,2013-02-26 16:14:00,
2013-02-26 08:20:00,37.5,36.7,30.30,SSE,163,0.0,0.0,97,0.00,,,0.00,Wunderground v.1.15,2013-02-26 16:20:00,
2013-02-26 08:25:00,37.7,36.9,30.30,SSE,163,0.0,0.0,97,0.00,,,0.00,Wunderground v.1.15,2013-02-26 16:25:00,
2013-02-26 08:30:00,37.8,36.8,30.30,SSE,163,0.0,0.0,96,0.00,,,0.00,Wunderground v.1.15,2013-02-26 16:30:00,
2013-02-26 08:36:00,39.0,38.2,30.31,SSE,163,0.0,0.0,97,0.00,,,0.00,Wunderground v.1.15,2013-02-26 16:36:00,
2013-02-26 08:41:00,39.7,38.9,30.30,SSE,163,0.0,0.0,97,0.00,,,0.00,Wunderground v.1.15,2013-02-26 16:41:00,
2013-02-26 08:46:00,40.1,39.1,30.31,SSE,163,0.0,0.0,96,0.00,,,0.00,Wunderground v.1.15,2013-02-26 16:46:00,
2013-02-26 08:52:00,40.9,40.1,30.30,SW,228,0.0,0.0,97,0.00,,,0.00,Wunderground v.1.15,2013-02-26 16:52:00,
2013-02-26 08:57:00,40.1,38.5,30.31,WSW,250,0.0,0.0,94,0.00,,,0.00,Wunderground v.1.15,2013-02-26 16:57:00,
2013-02-26 09:02:00,39.4,37.5,30.31,WSW,240,0.0,1.0,93,0.00,,,0.00,Wunderground v.1.15,2013-02-26 17:02:00,
2013-02-26 09:07:00,39.5,37.9,30.31,SW,224,0.0,1.0,94,0.00,,,0.00,Wunderground v.1.15,2013-02-26 17:07:00,
2013-02-26 09:13:00,40.1,38.5,30.31,SW,226,0.0,0.0,94,0.00,,,0.00,Wunderground v.1.15,2013-02-26 17:13:00,
2013-02-26 09:18:00,40.5,38.6,30.31,SW,232,0.0,0.0,93,0.00,,,0.00,Wunderground v.1.15,2013-02-26 17:18:00,
2013-02-26 09:24:00,41.0,39.1,30.31,SW,232,0.0,0.0,93,0.00,,,0.00,Wunderground v.1.15,2013-02-26 17:24:00,
2013-02-26 09:29:00,41.6,39.7,30.31,SW,232,0.0,0.0,93,0.00,,,0.00,Wunderground v.1.15,2013-02-26 17:29:00,
2013-02-26 09:34:00,41.9,39.5,30.31,SW,221,0.0,0.0,91,0.00,,,0.00,Wunderground v.1.15,2013-02-26 17:34:00,
2013-02-26 09:40:00,42.2,39.5,30.31,NNE,32,0.0,0.0,90,0.00,,,0.00,Wunderground v.1.15,2013-02-26 17:40:00,
2013-02-26 09:45:00,42.3,39.3,30.31,NNW,331,0.0,0.0,89,0.00,,,0.00,Wunderground v.1.15,2013-02-26 17:45:00,
2013-02-26 09:50:00,42.7,39.7,30.31,SW,222,0.0,2.0,89,0.00,,,0.00,Wunderground v.1.15,2013-02-26 17:50:00,
2013-02-26 09:55:00,42.9,39.3,30.31,NNE,32,0.0,2.0,87,0.00,,,0.00,Wunderground v.1.15,2013-02-26 17:55:00,
2013-02-26 10:01:00,42.9,39.3,30.31,NW,304,0.0,0.0,87,0.00,,,0.00,Wunderground v.1.15,2013-02-26 18:01:00,
2013-02-26 10:06:00,43.3,39.4,30.30,North,6,0.0,0.0,86,0.00,,,0.00,Wunderground v.1.15,2013-02-26 18:06:00,
2013-02-26 10:12:00,43.4,38.9,30.31,NNW,341,1.0,2.0,84,0.00,,,0.00,Wunderground v.1.15,2013-02-26 18:12:00,
2013-02-26 10:18:00,43.9,39.7,30.31,NNE,16,1.0,2.0,85,0.00,,,0.00,Wunderground v.1.15,2013-02-26 18:18:00,
2013-02-26 10:23:00,44.3,39.8,30.31,NNW,341,0.0,0.0,84,0.00,,,0.00,Wunderground v.1.15,2013-02-26 18:23:00,
2013-02-26 10:29:00,44.3,38.5,30.31,North,7,1.0,2.0,80,0.00,,,0.00,Wunderground v.1.15,2013-02-26 18:29:00,
2013-02-26 10:34:00,44.3,38.5,30.31,NNE,29,1.0,3.0,80,0.00,,,0.00,Wunderground v.1.15,2013-02-26 18:34:00,
2013-02-26 10:40:00,44.7,39.2,30.31,NNE,25,0.0,0.0,81,0.00,,,0.00,Wunderground v.1.15,2013-02-26 18:40:00,
2013-02-26 10:45:00,45.1,39.3,30.31,NW,306,0.0,0.0,80,0.00,,,0.00,Wunderground v.1.15,2013-02-26 18:45:00,
2013-02-26 10:51:00,45.2,38.4,30.31,NNE,33,0.0,1.0,77,0.00,,,0.00,Wunderground v.1.15,2013-02-26 18:51:00,
2013-02-26 10:56:00,45.6,39.1,30.30,North,360,0.0,1.0,78,0.00,,,0.00,Wunderground v.1.15,2013-02-26 18:56:00,
2013-02-26 11:01:00,46.0,38.5,30.30,NNE,22,0.0,0.0,75,0.00,,,0.00,Wunderground v.1.15,2013-02-26 19:01:00,
2013-02-26 11:07:00,46.5,38.7,30.30,NNE,32,0.0,2.0,74,0.00,,,0.00,Wunderground v.1.15,2013-02-26 19:07:00,
2013-02-26 11:12:00,46.8,38.9,30.30,NNW,332,0.0,1.0,74,0.00,,,0.00,Wunderground v.1.15,2013-02-26 19:12:00,
2013-02-26 11:18:00,46.8,38.6,30.30,WSW,249,0.0,3.0,73,0.00,,,0.00,Wunderground v.1.15,2013-02-26 19:18:00,
2013-02-26 11:23:00,47.2,39.3,30.31,West,277,0.0,0.0,74,0.00,,,0.00,Wunderground v.1.15,2013-02-26 19:23:00,
2013-02-26 11:28:00,47.1,38.2,30.31,WNW,288,1.0,5.0,71,0.00,,,0.00,Wunderground v.1.15,2013-02-26 19:28:00,
2013-02-26 11:34:00,46.9,38.3,30.31,NNW,343,2.0,4.0,72,0.00,,,0.00,Wunderground v.1.15,2013-02-26 19:34:00,
2013-02-26 11:39:00,46.8,38.2,30.31,NNE,22,2.0,4.0,72,0.00,,,0.00,Wunderground v.1.15,2013-02-26 19:39:00,
2013-02-26 11:44:00,46.9,38.7,30.31,NW,311,2.0,5.0,73,0.00,,,0.00,Wunderground v.1.15,2013-02-26 19:44:00,
2013-02-26 11:50:00,46.5,38.7,30.32,North,353,3.0,3.0,74,0.00,,,0.00,Wunderground v.1.15,2013-02-26 19:50:00,
2013-02-26 11:55:00,46.6,39.4,30.32,North,354,2.0,3.0,76,0.00,,,0.00,Wunderground v.1.15,2013-02-26 19:55:00,
2013-02-26 12:00:00,46.8,39.6,30.32,NE,34,2.0,2.0,76,0.00,,,0.00,Wunderground v.1.15,2013-02-26 20:00:00,
2013-02-26 13:31:00,48.4,37.9,30.30,WNW,287,4.0,4.0,67,0.00,,,0.00,Wunderground v.1.15,2013-02-26 21:31:00,
2013-02-26 13:37:00,48.5,36.9,30.30,NNE,15,4.0,7.0,64,0.00,,,0.00,Wunderground v.1.15,2013-02-26 21:37:00,
2013-02-26 13:42:00,48.7,36.7,30.29,NE,46,4.0,6.0,63,0.00,,,0.00,Wunderground v.1.15,2013-02-26 21:42:00,
2013-02-26 13:47:00,48.5,36.1,30.29,NW,304,4.0,6.0,62,0.00,,,0.00,Wunderground v.1.15,2013-02-26 21:47:00,
2013-02-26 13:53:00,48.6,37.4,30.30,NNE,24,4.0,4.0,65,0.00,,,0.00,Wunderground v.1.15,2013-02-26 21:53:00,
2013-02-26 13:58:00,48.8,37.2,30.30,NNE,20,4.0,5.0,64,0.00,,,0.00,Wunderground v.1.15,2013-02-26 21:58:00,
2013-02-26 14:04:00,48.8,37.9,30.29,NNW,345,4.0,4.0,66,0.00,,,0.00,Wunderground v.1.15,2013-02-26 22:04:00,
2013-02-26 14:09:00,48.2,37.0,30.29,NNE,24,3.0,6.0,65,0.00,,,0.00,Wunderground v.1.15,2013-02-26 22:09:00,
2013-02-26 14:14:00,48.2,37.4,30.29,North,350,3.0,5.0,66,0.00,,,0.00,Wunderground v.1.15,2013-02-26 22:14:00,
2013-02-26 14:20:00,48.5,37.7,30.29,NNW,341,2.0,2.0,66,0.00,,,0.00,Wunderground v.1.15,2013-02-26 22:20:00,
2013-02-26 14:25:00,49.5,38.2,30.28,East,84,2.0,7.0,65,0.00,,,0.00,Wunderground v.1.15,2013-02-26 22:25:00,
2013-02-26 14:30:00,50.1,38.4,30.28,East,96,2.0,2.0,64,0.00,,,0.00,Wunderground v.1.15,2013-02-26 22:30:00,
2013-02-26 14:36:00,50.6,38.5,30.28,ENE,76,2.0,11.0,63,0.00,,,0.00,Wunderground v.1.15,2013-02-26 22:36:00,
2013-02-26 14:41:00,51.2,38.2,30.28,South,190,0.0,11.0,61,0.00,,,0.00,Wunderground v.1.15,2013-02-26 22:41:00,
2013-02-26 14:47:00,51.7,38.7,30.28,East,90,0.0,11.0,61,0.00,,,0.00,Wunderground v.1.15,2013-02-26 22:47:00,
2013-02-26 14:53:00,52.7,38.3,30.28,SSE,153,0.0,11.0,58,0.00,,,0.00,Wunderground v.1.15,2013-02-26 22:53:00,
2013-02-26 14:58:00,53.3,38.0,30.28,SSW,207,0.0,11.0,56,0.00,,,0.00,Wunderground v.1.15,2013-02-26 22:58:00,
2013-02-26 15:04:00,53.3,37.5,30.28,NNE,20,0.0,11.0,55,0.00,,,0.00,Wunderground v.1.15,2013-02-26 23:04:00,
2013-02-26 15:09:00,53.4,39.4,30.29,NW,308,1.0,11.0,59,0.00,,,0.00,Wunderground v.1.15,2013-02-26 23:09:00,
2013-02-26 15:14:00,53.7,39.7,30.29,NNW,330,1.0,11.0,59,0.00,,,0.00,Wunderground v.1.15,2013-02-26 23:14:00,
2013-02-26 15:20:00,52.8,40.5,30.29,NNW,338,2.0,11.0,63,0.00,,,0.00,Wunderground v.1.15,2013-02-26 23:20:00,
2013-02-26 15:25:00,51.6,40.2,30.29,NNW,347,4.0,11.0,65,0.00,,,0.00,Wunderground v.1.15,2013-02-26 23:25:00,
2013-02-26 15:30:00,51.5,39.7,30.29,NNW,341,5.0,5.0,64,0.00,,,0.00,Wunderground v.1.15,2013-02-26 23:30:00,
2013-02-26 15:36:00,50.8,39.5,30.29,North,11,4.0,11.0,65,0.00,,,0.00,Wunderground v.1.15,2013-02-26 23:36:00,
2013-02-26 15:41:00,50.4,39.5,30.29,NNW,338,4.0,11.0,66,0.00,,,0.00,Wunderground v.1.15,2013-02-26 23:41:00,
2013-02-26 15:46:00,50.1,39.2,30.29,NW,312,3.0,11.0,66,0.00,,,0.00,Wunderground v.1.15,2013-02-26 23:46:00,
2013-02-26 15:52:00,49.8,39.3,30.28,North,11,3.0,11.0,67,0.00,,,0.00,Wunderground v.1.15,2013-02-26 23:52:00,
2013-02-26 15:57:00,49.6,39.1,30.28,NE,41,3.0,11.0,67,0.00,,,0.00,Wunderground v.1.15,2013-02-26 23:57:00,
2013-02-26 16:02:00,49.8,39.3,30.28,North,4,2.0,11.0,67,0.00,,,0.00,Wunderground v.1.15,2013-02-27 00:02:00,
2013-02-26 16:08:00,49.6,38.7,30.28,NNW,332,2.0,11.0,66,0.00,,,0.00,Wunderground v.1.15,2013-02-27 00:08:00,
2013-02-26 16:13:00,49.8,38.5,30.28,North,4,2.0,11.0,65,0.00,,,0.00,Wunderground v.1.15,2013-02-27 00:13:00,
2013-02-26 16:19:00,49.7,38.4,30.28,NW,315,2.0,11.0,65,0.00,,,0.00,Wunderground v.1.15,2013-02-27 00:19:00,
2013-02-26 16:24:00,49.4,38.5,30.28,NNW,347,3.0,11.0,66,0.00,,,0.00,Wunderground v.1.15,2013-02-27 00:24:00,
2013-02-26 16:29:00,48.8,37.9,30.28,NNW,333,3.0,11.0,66,0.00,,,0.00,Wunderground v.1.15,2013-02-27 00:29:00,
2013-02-26 16:35:00,48.5,38.4,30.28,NNE,15,3.0,11.0,68,0.00,,,0.00,Wunderground v.1.15,2013-02-27 00:35:00,
2013-02-26 16:40:00,48.2,38.5,30.28,NNW,342,3.0,3.0,69,0.00,,,0.00,Wunderground v.1.15,2013-02-27 00:40:00,
2013-02-26 16:45:00,48.0,38.7,30.29,NNE,28,3.0,11.0,70,0.00,,,0.00,Wunderground v.1.15,2013-02-27 00:45:00,
2013-02-26 16:51:00,47.5,38.2,30.28,NW,326,3.0,4.0,70,0.00,,,0.00,Wunderground v.1.15,2013-02-27 00:51:00,
2013-02-26 16:56:00,47.2,38.3,30.29,NNW,345,3.0,11.0,71,0.00,,,0.00,Wunderground v.1.15,2013-02-27 00:56:00,
2013-02-26 17:02:00,47.0,38.1,30.28,NNE,19,3.0,11.0,71,0.00,,,0.00,Wunderground v.1.15,2013-02-27 01:02:00,
2013-02-26 17:07:00,46.8,38.6,30.28,North,3,2.0,11.0,73,0.00,,,0.00,Wunderground v.1.15,2013-02-27 01:07:00,
2013-02-26 17:12:00,46.5,38.3,30.28,North,356,2.0,11.0,73,0.00,,,0.00,Wunderground v.1.15,2013-02-27 01:12:00,
2013-02-26 17:18:00,46.3,38.1,30.28,East,88,2.0,11.0,73,0.00,,,0.00,Wunderground v.1.15,2013-02-27 01:18:00,
2013-02-26 17:23:00,46.1,37.9,30.27,East,86,1.0,11.0,73,0.00,,,0.00,Wunderground v.1.15,2013-02-27 01:23:00,
2013-02-26 17:28:00,46.0,38.2,30.28,North,5,1.0,11.0,74,0.00,,,0.00,Wunderground v.1.15,2013-02-27 01:28:00,
2013-02-26 17:34:00,46.0,38.2,30.27,ENE,65,1.0,11.0,74,0.00,,,0.00,Wunderground v.1.15,2013-02-27 01:34:00,
2013-02-26 17:39:00,46.1,37.9,30.27,North,4,1.0,11.0,73,0.00,,,0.00,Wunderground v.1.15,2013-02-27 01:39:00,
2013-02-26 17:44:00,46.2,38.4,30.27,NE,39,1.0,11.0,74,0.00,,,0.00,Wunderground v.1.15,2013-02-27 01:44:00,
2013-02-26 17:50:00,46.3,38.5,30.27,NNW,333,1.0,11.0,74,0.00,,,0.00,Wunderground v.1.15,2013-02-27 01:50:00,
2013-02-26 17:55:00,46.1,38.3,30.26,North,358,0.0,11.0,74,0.00,,,0.00,Wunderground v.1.15,2013-02-27 01:55:00,
2013-02-26 18:01:00,45.8,38.3,30.26,North,11,0.0,11.0,75,0.00,,,0.00,Wunderground v.1.15,2013-02-27 02:01:00,
2013-02-26 18:06:00,45.5,38.4,30.26,East,83,0.0,11.0,76,0.00,,,0.00,Wunderground v.1.15,2013-02-27 02:06:00,
2013-02-26 18:12:00,45.1,38.0,30.25,East,98,0.0,11.0,76,0.00,,,0.00,Wunderground v.1.15,2013-02-27 02:12:00,
2013-02-26 18:17:00,44.8,38.0,30.25,ESE,108,0.0,11.0,77,0.00,,,0.00,Wunderground v.1.15,2013-02-27 02:17:00,
2013-02-26 18:23:00,44.3,37.5,30.26,ESE,109,0.0,11.0,77,0.00,,,0.00,Wunderground v.1.15,2013-02-27 02:23:00,
2013-02-26 18:29:00,43.7,37.3,30.25,ESE,108,0.0,11.0,78,0.00,,,0.00,Wunderground v.1.15,2013-02-27 02:29:00,
2013-02-26 18:34:00,43.5,37.4,30.25,ESE,108,0.0,11.0,79,0.00,,,0.00,Wunderground v.1.15,2013-02-27 02:34:00,
2013-02-26 18:40:00,43.2,37.4,30.26,WSW,240,0.0,11.0,80,0.00,,,0.00,Wunderground v.1.15,2013-02-27 02:40:00,
2013-02-26 18:45:00,43.0,37.3,30.26,SW,235,0.0,11.0,80,0.00,,,0.00,Wunderground v.1.15,2013-02-27 02:45:00,
2013-02-26 18:51:00,42.7,37.3,30.26,SW,235,0.0,11.0,81,0.00,,,0.00,Wunderground v.1.15,2013-02-27 02:51:00,
2013-02-26 18:56:00,42.5,37.4,30.27,SW,235,0.0,11.0,82,0.00,,,0.00,Wunderground v.1.15,2013-02-27 02:56:00,
2013-02-26 19:02:00,42.3,37.5,30.28,SW,236,0.0,11.0,83,0.00,,,0.00,Wunderground v.1.15,2013-02-27 03:02:00,
2013-02-26 19:08:00,42.0,37.2,30.28,WSW,238,0.0,11.0,83,0.00,,,0.00,Wunderground v.1.15,2013-02-27 03:08:00,
2013-02-26 19:13:00,41.7,37.2,30.28,WSW,238,0.0,11.0,84,0.00,,,0.00,Wunderground v.1.15,2013-02-27 03:13:00,
2013-02-26 19:18:00,41.5,37.3,30.29,WSW,237,0.0,11.0,85,0.00,,,0.00,Wunderground v.1.15,2013-02-27 03:18:00,
2013-02-26 19:23:00,41.3,37.4,30.29,NE,56,0.0,11.0,86,0.00,,,0.00,Wunderground v.1.15,2013-02-27 03:23:00,
2013-02-26 19:29:00,41.0,36.8,30.29,ESE,117,0.0,11.0,85,0.00,,,0.00,Wunderground v.1.15,2013-02-27 03:29:00,
2013-02-26 19:34:00,40.7,36.8,30.29,ESE,117,0.0,11.0,86,0.00,,,0.00,Wunderground v.1.15,2013-02-27 03:34:00,
2013-02-26 19:40:00,40.6,37.0,30.30,ESE,119,0.0,11.0,87,0.00,,,0.00,Wunderground v.1.15,2013-02-27 03:40:00,
2013-02-26 19:45:00,40.4,37.1,30.30,ESE,119,0.0,11.0,88,0.00,,,0.00,Wunderground v.1.15,2013-02-27 03:45:00,
2013-02-26 19:50:00,40.0,36.4,30.29,ESE,118,0.0,11.0,87,0.00,,,0.00,Wunderground v.1.15,2013-02-27 03:50:00,
2013-02-26 19:56:00,39.6,36.3,30.29,ESE,119,0.0,11.0,88,0.00,,,0.00,Wunderground v.1.15,2013-02-27 03:56:00,
2013-02-26 20:01:00,39.3,36.0,30.30,ESE,119,0.0,11.0,88,0.00,,,0.00,Wunderground v.1.15,2013-02-27 04:01:00,
2013-02-26 20:06:00,39.3,36.6,30.31,ESE,115,0.0,11.0,90,0.00,,,0.00,Wunderground v.1.15,2013-02-27 04:06:00,
2013-02-26 20:12:00,39.9,37.5,30.30,North,352,0.0,11.0,91,0.00,,,0.00,Wunderground v.1.15,2013-02-27 04:12:00,
2013-02-26 20:17:00,40.3,37.9,30.31,North,356,0.0,11.0,91,0.00,,,0.00,Wunderground v.1.15,2013-02-27 04:17:00,
2013-02-26 20:23:00,39.9,36.9,30.31,North,357,0.0,11.0,89,0.00,,,0.00,Wunderground v.1.15,2013-02-27 04:23:00,
2013-02-26 20:28:00,39.5,36.5,30.31,North,356,0.0,11.0,89,0.00,,,0.00,Wunderground v.1.15,2013-02-27 04:28:00,
2013-02-26 20:33:00,39.2,36.5,30.31,North,356,0.0,11.0,90,0.00,,,0.00,Wunderground v.1.15,2013-02-27 04:33:00,
2013-02-26 20:39:00,39.1,36.4,30.31,North,356,0.0,11.0,90,0.00,,,0.00,Wunderground v.1.15,2013-02-27 04:39:00,
2013-02-26 20:44:00,39.0,36.3,30.31,North,358,0.0,11.0,90,0.00,,,0.00,Wunderground v.1.15,2013-02-27 04:44:00,
2013-02-26 20:49:00,39.0,36.6,30.31,ESE,103,0.0,11.0,91,0.00,,,0.00,Wunderground v.1.15,2013-02-27 04:49:00,
2013-02-26 20:55:00,38.9,36.5,30.31,ESE,103,0.0,11.0,91,0.00,,,0.00,Wunderground v.1.15,2013-02-27 04:55:00,
2013-02-26 21:00:00,38.7,36.3,30.31,ESE,103,0.0,11.0,91,0.00,,,0.00,Wunderground v.1.15,2013-02-27 05:00:00,
2013-02-26 21:01:00,38.7,36.3,30.31,ESE,105,0.0,11.0,91,0.00,,,0.00,Wunderground v.1.15,2013-02-27 05:01:00,
2013-02-26 21:04:00,38.6,36.2,30.30,ESE,106,0.0,11.0,91,0.00,,,0.00,Wunderground v.1.15,2013-02-27 05:04:00,
2013-02-26 21:09:00,38.4,36.0,30.30,ESE,105,0.0,11.0,91,0.00,,,0.00,Wunderground v.1.15,2013-02-27 05:09:00,
2013-02-26 21:14:00,38.2,35.8,30.30,ESE,105,0.0,11.0,91,0.00,,,0.00,Wunderground v.1.15,2013-02-27 05:14:00,
2013-02-26 21:19:00,38.2,36.1,30.30,ESE,105,0.0,11.0,92,0.00,,,0.00,Wunderground v.1.15,2013-02-27 05:19:00,
2013-02-26 21:22:00,38.1,36.0,30.30,ESE,106,0.0,11.0,92,0.00,,,0.00,Wunderground v.1.15,2013-02-27 05:22:00,
2013-02-26 21:27:00,38.0,35.9,30.30,SE,131,0.0,11.0,92,0.00,,,0.00,Wunderground v.1.15,2013-02-27 05:27:00,
2013-02-26 21:32:00,37.9,35.8,30.30,SE,131,0.0,11.0,92,0.00,,,0.00,Wunderground v.1.15,2013-02-27 05:32:00,
2013-02-26 21:38:00,37.8,36.0,30.30,SW,232,0.0,11.0,93,0.00,,,0.00,Wunderground v.1.15,2013-02-27 05:38:00,
2013-02-26 21:43:00,37.6,35.5,30.31,SW,231,0.0,11.0,92,0.00,,,0.00,Wunderground v.1.15,2013-02-27 05:43:00,
2013-02-26 21:48:00,37.3,35.5,30.30,SW,219,0.0,11.0,93,0.00,,,0.00,Wunderground v.1.15,2013-02-27 05:48:00,
2013-02-26 21:54:00,37.1,35.3,30.31,SW,219,0.0,11.0,93,0.00,,,0.00,Wunderground v.1.15,2013-02-27 05:54:00,
2013-02-26 21:59:00,36.9,35.1,30.30,SW,219,0.0,11.0,93,0.00,,,0.00,Wunderground v.1.15,2013-02-27 05:59:00,
2013-02-26 22:04:00,36.8,35.0,30.31,SW,221,0.0,11.0,93,0.00,,,0.00,Wunderground v.1.15,2013-02-27 06:04:00,
2013-02-26 22:10:00,36.7,34.9,30.31,SW,229,0.0,11.0,93,0.00,,,0.00,Wunderground v.1.15,2013-02-27 06:10:00,
2013-02-26 22:15:00,36.5,34.7,30.31,SW,229,0.0,11.0,93,0.00,,,0.00,Wunderground v.1.15,2013-02-27 06:15:00,
2013-02-26 22:20:00,36.4,34.6,30.31,SW,229,0.0,11.0,93,0.00,,,0.00,Wunderground v.1.15,2013-02-27 06:20:00,
2013-02-26 22:26:00,36.2,34.4,30.30,SW,229,0.0,11.0,93,0.00,,,0.00,Wunderground v.1.15,2013-02-27 06:26:00,
2013-02-26 22:31:00,36.0,34.2,30.30,SE,139,0.0,11.0,93,0.00,,,0.00,Wunderground v.1.15,2013-02-27 06:31:00,
2013-02-26 22:36:00,36.1,34.5,30.30,ESE,113,0.0,11.0,94,0.00,,,0.00,Wunderground v.1.15,2013-02-27 06:36:00,
2013-02-26 22:42:00,35.9,34.3,30.31,ESE,113,0.0,11.0,94,0.00,,,0.00,Wunderground v.1.15,2013-02-27 06:42:00,
2013-02-26 22:48:00,35.8,34.2,30.30,ESE,113,0.0,11.0,94,0.00,,,0.00,Wunderground v.1.15,2013-02-27 06:48:00,
2013-02-26 22:53:00,35.8,34.2,30.31,SW,236,0.0,11.0,94,0.00,,,0.00,Wunderground v.1.15,2013-02-27 06:53:00,
2013-02-26 22:59:00,35.7,34.1,30.31,WSW,237,0.0,11.0,94,0.00,,,0.00,Wunderground v.1.15,2013-02-27 06:59:00,
2013-02-26 23:04:00,35.5,33.9,30.31,SW,236,0.0,11.0,94,0.00,,,0.00,Wunderground v.1.15,2013-02-27 07:04:00,
2013-02-26 23:09:00,35.2,33.6,30.31,SW,236,0.0,11.0,94,0.00,,,0.00,Wunderground v.1.15,2013-02-27 07:09:00,
2013-02-26 23:15:00,35.1,33.5,30.31,WSW,237,0.0,11.0,94,0.00,,,0.00,Wunderground v.1.15,2013-02-27 07:15:00,
2013-02-26 23:20:00,35.0,33.4,30.32,SW,236,0.0,11.0,94,0.00,,,0.00,Wunderground v.1.15,2013-02-27 07:20:00,
2013-02-26 23:25:00,34.8,33.2,30.32,SW,236,0.0,11.0,94,0.00,,,0.00,Wunderground v.1.15,2013-02-27 07:25:00,
2013-02-26 23:31:00,34.9,33.6,30.32,SW,236,0.0,11.0,95,0.00,,,0.00,Wunderground v.1.15,2013-02-27 07:31:00,
2013-02-26 23:36:00,35.0,33.7,30.32,SW,236,0.0,11.0,95,0.00,,,0.00,Wunderground v.1.15,2013-02-27 07:36:00,
2013-02-26 23:41:00,34.9,33.3,30.32,SW,235,0.0,11.0,94,0.00,,,0.00,Wunderground v.1.15,2013-02-27 07:41:00,
2013-02-26 23:47:00,34.8,33.2,30.32,SW,235,0.0,11.0,94,0.00,,,0.00,Wunderground v.1.15,2013-02-27 07:47:00,
2013-02-26 23:52:00,34.8,33.5,30.32,SW,235,0.0,11.0,95,0.00,,,0.00,Wunderground v.1.15,2013-02-27 07:52:00,
2013-02-26 23:57:00,34.8,33.5,30.32,SW,235,0.0,11.0,95,0.00,,,0.00,Wunderground v.1.15,2013-02-27 07:57:00,